Flag for U.S.A. Weather past 2 weeks in Oakland, California, U.S.A.

Now
61 °F

Passing clouds.


Feels Like: 61 °F
Forecast: 59 / 76 °F
Wind: 8 mph from Northwest

Location: Metro Oakland International Airport

Current Time: Jul 28, 2014 at 2:25:11 AM

Latest Report: Jul 28, 2014 at 1:53 AM


Visibility: 10 mi

Pressure: 29.99 "Hg

Humidity: 83%

Dew point: 56 °F

Location of OaklandLocation

Historic Weather in Oakland — Graph

°F

Oakland temperature yesterday

Maximum temperature yesterday: 77 °F (at 12:53 PM)
Minimum temperature yesterday: 61 °F (at 10:53 PM)
Average temperature yesterday: 67 °F

Past Weeks' High & Low Weather Summary

 TemperatureHumidityPressure
High90 °F (Jul 25, 1:53 PM)90% (Jul 16, 1:53 AM)30.15 "Hg (Jul 16, 1:53 AM)
Low57 °F (Jul 14, 4:53 AM)23% (Jul 25, 12:53 PM)29.83 "Hg (Jul 25, 3:53 AM)
Average67 °F71%29.97 "Hg
* Reported Jul 13 12:53 AM — Jul 28 12:53 AM, Oakland, Weather by CustomWeather, © 2014

Note: Actual official high and low records may vary slightly from our data, if they occured in-between our weather recording intervals... More about our weather records

Advertising

Oakland weather history for previous 24 hours

 ConditionsComfort  
Time TempWeatherWind HumidityBarometerVisibility
12:53 AM
Jul 28
61 °FPassing clouds.8 mph83%30.00 "Hg10 mi
11:53 PM
Jul 27
61 °FPassing clouds.12 mph83%30.00 "Hg10 mi
10:53 PM61 °FPassing clouds.14 mph83%29.99 "Hg10 mi
9:53 PM62 °FPassing clouds.15 mph80%29.98 "Hg10 mi
8:53 PM62 °FPassing clouds.14 mph80%29.96 "Hg10 mi
7:53 PM66 °FPassing clouds.14 mph73%29.94 "Hg10 mi
6:53 PM67 °FScattered clouds.12 mph71%29.93 "Hg10 mi
5:53 PM71 °FScattered clouds.16 mph61%29.93 "Hg10 mi
4:53 PM74 °FScattered clouds.20 mph56%29.93 "Hg10 mi
3:53 PM75 °FScattered clouds.15 mph55%29.93 "Hg10 mi
2:53 PM76 °FScattered clouds.14 mph54%29.96 "Hg10 mi
1:53 PM75 °FScattered clouds.13 mph55%29.96 "Hg10 mi
12:53 PM77 °FScattered clouds.12 mph52%29.97 "Hg10 mi
11:53 AM75 °FScattered clouds.9 mph55%29.98 "Hg10 mi
10:53 AM71 °FScattered clouds.6 mph61%29.99 "Hg10 mi
9:53 AM68 °FScattered clouds.9 mph68%29.99 "Hg10 mi
8:53 AM64 °FPartly sunny.5 mph78%29.99 "Hg10 mi
7:53 AM63 °FPartly sunny.9 mph78%29.98 "Hg9 mi
6:53 AM63 °FPassing clouds.6 mph78%29.98 "Hg10 mi
5:53 AM63 °FPassing clouds.6 mph78%29.96 "Hg10 mi
4:53 AM62 °FPassing clouds.9 mph80%29.94 "Hg10 mi
3:53 AM63 °FPassing clouds.6 mph78%29.96 "Hg10 mi
2:53 AM62 °FPassing clouds.10 mph80%29.95 "Hg10 mi
Weather by CustomWeather, © 2014

See weather overviewHow to use our weather pages